Regional Weather Roundup
Issued by NWS

Home | Current Version | Previous Version | Text Only | Print | Product List | Glossary Off
Versions: 1 2 3 4 5 6 7 8 9 10 11 12 13 14 15 16 17 18 19 20 21 22 23 24 25 26 27 28 29 30 31 32 33 34 35 36 37 38 39 40 41 42 43 44 45 46 47 48 49 50

000
ASUS43 KOAX 231502
RWRNE

WEATHER ROUNDUP FOR NEBRASKA
NATIONAL WEATHER SERVICE OMAHA NE
900 AM CST SUN NOV 23 2014

NOTES: SATELLITE DATA IS BEING USED TO AUGMENT CLOUD COVER ABOVE
       12000 FEET.
       "FAIR" INDICATES FEW OR NO CLOUDS BELOW 12,000 FEET WITH NO
       SIGNIFICANT WEATHER AND/OR OBSTRUCTIONS TO VISIBILITY.

  * THESE STATIONS DO NOT REPORT WEATHER SUCH AS RAIN...SNOW OR FOG.

NEZ001>004-019>022-054>056-231600-
NEBRASKA PANHANDLE

CITY           SKY/WX    TMP DP  RH WIND       PRES   REMARKS
SCOTTSBLUFF    CLEAR     30  21  69 W13       29.76R WCI  20
ALLIANCE       PTCLDY    34  17  50 NW23      29.70R WCI  22
CHADRON        CLEAR     30  21  69 W9        29.76R WCI  22
SIDNEY         PTSUNNY   34  16  47 N18       29.72R WCI  23
$$

NEZ057>060-069>072-079>082-231600-
SOUTHWEST NEBRASKA

CITY           SKY/WX    TMP DP  RH WIND       PRES   REMARKS
NORTH PLATTE   CLOUDY    42  22  44 N14       29.68R
IMPERIAL       CLOUDY    40  18  41 N16       29.70R WCI  31
MCCOOK         CLOUDY    45  23  42 N23G33    29.66R
$$

NEZ005>010-023>029-035>040-094-231600-
NORTH CENTRAL NEBRASKA

CITY           SKY/WX    TMP DP  RH WIND       PRES   REMARKS
VALENTINE      CLOUDY    38  27  64 NW17      29.67R WCI  28
BROKEN BOW     CLOUDY    43  28  55 N21G31    29.64R
ORD            CLOUDY    43  33  68 NW16G23   29.62R
$$

NEZ041-046>049-061>064-073>077-083>087-231600-
SOUTH CENTRAL NEBRASKA

CITY           SKY/WX    TMP DP  RH WIND       PRES   REMARKS
HASTINGS       CLOUDY    44  36  73 N20G29    29.58R
KEARNEY *      CLOUDY    41  34  75 NW31G38   29.63R
YORK           MIX PCPN  45  39  81 N16G26    29.56R
$$

NEZ011>018-030>034-042>045-231600-
NORTHEAST NEBRASKA

CITY           SKY/WX    TMP DP  RH WIND       PRES   REMARKS
NORFOLK        LGT RAIN  43  38  82 NW14G23   29.55R
COLUMBUS *     CLOUDY    45  36  70 N15G25    29.57R
TEKAMAH        CLOUDY    52  48  86 NW13      29.49R
$$

NEZ050>053-065>068-078-088>093-231600-
SOUTHEAST NEBRASKA

CITY           SKY/WX    TMP DP  RH WIND       PRES   REMARKS
LINCOLN        CLOUDY    53  50  89 SW6       29.49F
OMAHA EPPLEY   LGT RAIN  52  51  97 S5        29.49S
FALLS CITY     CLOUDY    53  53 100 S7        29.48F FOG
$$

NEZ044-045-051>053-067-231600-
OMAHA AREA

CITY           SKY/WX    TMP DP  RH WIND       PRES   REMARKS
OMAHA EPPLEY   LGT RAIN  52  51  97 S5        29.49S
OFFUTT AFB     CLOUDY    53  52  95 VRB2      29.48S
$$


USA.gov is the U.S. government's official web portal to all federal, state and local government web resources and services.